Casper, WY

8:26 AM MDT on June 24, 2017 (GMT -0600)
Natrona County International

Weather History for KCPR - February, 2014

Change the Weather History Date:

Sunday, February 23, 2014

  Actual Average Record
Temperature  
Mean Temperature 15 °F 29 °F  
Max Temperature 19 °F 40 °F 62 °F (1958)
Min Temperature 11 °F 17 °F -21 °F (2003)
Degree Days  
Heating Degree Days 50 36  
Month to date heating degree days 1033 893  
Since 1 July heating degree days 5515 5270  
Cooling Degree Days 0 0  
Month to date cooling degree days 0 0  
Year to date cooling degree days 0 0  
Moisture  
Dew Point 11 °F    
Average Humidity 85    
Maximum Humidity 96    
Minimum Humidity 73    
Precipitation  
Precipitation 0.04 in 0.02 in 0.40 in (2017)
Month to date precipitation 0.41 0.46  
Year to date precipitation 1.15 0.97  
Snow  
Snow 0.50 in 0.40 in - ()
Month to date snowfall 5.9 8.1  
Since 1 July snowfall 60.6 47.7  
Snow Depth 2.00 in    
Sea Level Pressure  
Sea Level Pressure 30.08 in    
Wind  
Wind Speed 8 mph (East)    
Max Wind Speed 17 mph    
Max Gust Speed 21 mph    
Visibility 6 miles    
Events Snow    
T = Trace of Precipitation, MM = Missing Value Source: NWS Daily Summary

Daily Weather History Graph

Daily Weather History Graph

Search for Another Location

Airport or City:

Trip Planner

Search our weather history database for the weather conditions in past years. The results will help you decide how hot, cold, wet, or windy it might be!

Date:

Astronomy

Feb. 23, 2014 Rise Set
Actual Time 6:51 AM MST 5:47 PM MST
Civil Twilight 6:22 AM MST 6:16 PM MST
Nautical Twilight 5:49 AM MST 6:49 PM MST
Astronomical Twilight 5:16 AM MST 7:22 PM MST
Moon 1:56 AM MST (2/23) 11:48 AM MST (2/23)
Length of Visible Light 11h 53m
Length of Day
10h 56m
Last Quarter, 38% of the Moon is Illuminated
Feb 23
Last Quarter
Mar 1
New
Mar 8
First Quarter
Mar 16
Full
Mar 23
Last Quarter

Hourly Weather History & Observations

Time (MST) Temp. Windchill Dew Point Humidity Pressure Visibility Wind Dir Wind Speed Gust Speed Precip Events Conditions
12:12 AM 14.0 °F -0.2 °F 10.0 °F 84% 29.98 in 1.0 mi ENE 12.7 mph - 0.01 in Snow Light Snow
12:51 AM 14.0 °F -0.2 °F 10.4 °F 86% 29.98 in 1.5 mi ENE 12.7 mph - 0.03 in Snow Light Snow
12:53 AM 14.0 °F -0.8 °F 10.9 °F 88% 30.14 in 1.5 mi ENE 13.8 mph - 0.03 in Snow Light Snow
1:04 AM 14.0 °F 0.5 °F 10.9 °F 88% 29.98 in 2.0 mi ENE 11.5 mph - 0.00 in Snow Light Snow
1:43 AM 14.0 °F 1.2 °F 10.0 °F 84% 29.98 in 3.0 mi ENE 10.4 mph - 0.01 in Snow Light Snow
1:53 AM 14.0 °F 2.9 °F 10.0 °F 84% 30.14 in 2.5 mi East 8.1 mph - 0.01 in Snow Light Snow
2:01 AM 14.0 °F 1.2 °F 10.0 °F 84% 29.97 in 3.0 mi East 10.4 mph - 0.00 in Snow Light Snow
2:16 AM 12.9 °F 1.6 °F 10.0 °F 88% 29.97 in 2.5 mi East 8.1 mph - 0.00 in Snow Light Snow
2:31 AM 12.9 °F 1.6 °F 10.0 °F 88% 29.97 in 4.0 mi East 8.1 mph - 0.00 in Snow Light Snow
2:53 AM 12.0 °F 2.7 °F 9.0 °F 88% 30.15 in 10.0 mi ENE 5.8 mph - 0.00 in   Overcast
3:53 AM 12.9 °F 3.8 °F 9.0 °F 84% 30.15 in 6.0 mi ENE 5.8 mph - N/A   Overcast
4:53 AM 12.0 °F 2.7 °F 8.1 °F 84% 30.16 in 10.0 mi ESE 5.8 mph - N/A   Overcast
5:26 AM 12.0 °F 2.7 °F 8.1 °F 84% 29.97 in 10.0 mi East 5.8 mph - N/A   Overcast
5:35 AM 12.0 °F 2.7 °F 8.1 °F 84% 29.97 in 10.0 mi East 5.8 mph - N/A   Overcast
5:53 AM 10.9 °F 1.4 °F 9.0 °F 92% 30.17 in 9.0 mi East 5.8 mph - N/A   Overcast
6:53 AM 12.0 °F -0.4 °F 10.0 °F 92% 30.16 in 5.0 mi ENE 9.2 mph - N/A   Overcast
7:53 AM 12.9 °F 0.7 °F 10.9 °F 92% 30.18 in 6.0 mi ENE 9.2 mph - N/A   Overcast
8:53 AM 14.0 °F 6.5 °F 10.9 °F 88% 30.19 in 4.0 mi Variable 4.6 mph - N/A   Overcast
9:53 AM 15.1 °F 5.2 °F 10.9 °F 84% 30.19 in 5.0 mi East 6.9 mph - N/A   Overcast
10:53 AM 16.0 °F 6.3 °F 10.9 °F 81% 30.19 in 4.0 mi East 6.9 mph - N/A   Haze
11:38 AM 17.1 °F 5.8 °F 10.9 °F 77% 30.01 in 2.5 mi ENE 9.2 mph - 0.00 in Snow Light Snow
11:47 AM 17.6 °F 6.4 °F 12.2 °F 79% 30.01 in 1.8 mi ENE 9.2 mph - 0.00 in Snow Light Snow
11:51 AM 17.6 °F 5.7 °F 12.2 °F 79% 30.01 in 2.0 mi ENE 10.4 mph - 0.00 in Snow Light Snow
11:53 AM 17.1 °F 5.8 °F 12.0 °F 81% 30.19 in 2.0 mi ENE 9.2 mph - 0.00 in Snow Light Snow
12:08 PM 18.0 °F 6.1 °F 12.0 °F 78% 30.01 in 2.0 mi ENE 10.4 mph - 0.00 in Snow Light Snow
12:18 PM 18.0 °F 6.9 °F 12.0 °F 78% 30.01 in 3.0 mi ENE 9.2 mph - 0.00 in   Haze
12:53 PM 18.0 °F 5.4 °F 12.0 °F 78% 30.19 in 4.0 mi ENE 11.5 mph - 0.00 in   Haze
1:35 PM 18.0 °F 6.9 °F 12.0 °F 78% 29.99 in 6.0 mi East 9.2 mph - N/A   Haze
1:53 PM 19.0 °F 8.2 °F 12.9 °F 77% 30.16 in 9.0 mi East 9.2 mph - N/A   Overcast
2:53 PM 19.0 °F - 12.9 °F 77% 30.16 in 10.0 mi North - - N/A   Overcast
3:53 PM 19.0 °F 9.0 °F 12.9 °F 77% 30.15 in 10.0 mi East 8.1 mph - N/A   Overcast
4:53 PM 18.0 °F 6.9 °F 12.0 °F 78% 30.14 in 10.0 mi ENE 9.2 mph - N/A   Overcast
5:53 PM 17.1 °F 5.8 °F 12.9 °F 84% 30.14 in 9.0 mi East 9.2 mph - N/A   Overcast
6:53 PM 17.1 °F 6.6 °F 12.9 °F 84% 30.14 in 10.0 mi East 8.1 mph - N/A   Overcast
7:53 PM 17.1 °F 7.6 °F 14.0 °F 88% 30.12 in 9.0 mi ESE 6.9 mph - N/A   Overcast
8:31 PM 17.1 °F 8.7 °F 12.9 °F 84% 29.94 in 10.0 mi East 5.8 mph - N/A   Overcast
8:53 PM 17.1 °F 6.6 °F 12.9 °F 84% 30.11 in 9.0 mi ENE 8.1 mph - N/A   Overcast
9:53 PM 15.1 °F 2.5 °F 12.0 °F 88% 30.10 in 8.0 mi East 10.4 mph - N/A   Overcast
10:43 PM 14.0 °F 2.0 °F 12.9 °F 95% 29.89 in 5.0 mi ESE 9.2 mph - N/A   Overcast
10:53 PM 14.0 °F 2.0 °F 12.0 °F 92% 30.07 in 3.0 mi SE 9.2 mph - N/A   Overcast
11:53 PM 14.0 °F - 10.9 °F 88% 30.04 in 4.0 mi Calm Calm - N/A   Overcast